Gulkana, AK

3:43 AM AKST on November 21, 2017 (GMT -0900)
Gulkana

Weather History for PAGK - July, 2013

Change the Weather History Date:

Friday, July 19, 2013

  Actual Average Record
Temperature  
Mean Temperature 62 °F -  
Max Temperature 72 °F 68 °F 82 °F (1990)
Min Temperature 53 °F 47 °F 29 °F (1970)
Degree Days  
Heating Degree Days 2    
Growing Degree Days 12 (Base 50)    
Moisture  
Dew Point 52 °F    
Average Humidity 70    
Maximum Humidity 86    
Minimum Humidity 45    
Precipitation  
Precipitation 0.03 in - - ()
Sea Level Pressure  
Sea Level Pressure 30.08 in    
Wind  
Wind Speed 4 mph (SW)    
Max Wind Speed 9 mph    
Max Gust Speed -    
Visibility 10 miles    
Events Rain , Thunderstorm    
Averages and records for this station are not official NWS values.
T = Trace of Precipitation, MM = Missing Value Source: NWS Daily Summary

Daily Weather History Graph

Daily Weather History Graph

Search for Another Location

Airport or City:

Trip Planner

Search our weather history database for the weather conditions in past years. The results will help you decide how hot, cold, wet, or windy it might be!

Date:

Astronomy

Jul. 19, 2013 Rise Set
Actual Time 4:33 AM AKDT 11:00 PM AKDT
Civil Twilight 2:55 AM AKDT 12:35 AM AKDT
Nautical Twilight Sun does not rise Sun does not rise
Astronomical Twilight Sun does not rise Sun does not rise
Moon 8:08 PM AKDT (7/19) 1:33 AM AKDT (7/19)
Length of Visible Light 21h 40m
Length of Day
18h 27m
Waxing Gibbous, 88% of the Moon is Illuminated
Jul 19
Waxing Gibbous
Jul 22
Full
Jul 29
Last Quarter
Aug 6
New
Aug 14
First Quarter

Hourly Weather History & Observations

Time (AKDT) Temp. Dew Point Humidity Pressure Visibility Wind Dir Wind Speed Gust Speed Precip Events Conditions
12:53 AM 64.0 °F 50.0 °F 60% 30.06 in 10.0 mi WSW 3.5 mph - N/A   Overcast
1:53 AM 61.0 °F 51.1 °F 70% 30.07 in 10.0 mi WSW 3.5 mph - N/A   Overcast
2:53 AM 59.0 °F 53.1 °F 81% 30.08 in 10.0 mi WNW 3.5 mph - N/A   Overcast
3:53 AM 57.0 °F 52.0 °F 83% 30.09 in 10.0 mi Calm Calm - N/A   Scattered Clouds
4:53 AM 55.0 °F 50.0 °F 83% 30.09 in 10.0 mi Calm Calm - N/A   Overcast
5:53 AM 55.9 °F 51.1 °F 84% 30.09 in 10.0 mi Calm Calm - N/A   Mostly Cloudy
6:02 AM 55.9 °F 51.1 °F 84% 30.11 in 10.0 mi SSW 3.5 mph - N/A   Overcast
6:53 AM 57.9 °F 50.0 °F 75% 30.09 in 10.0 mi Calm Calm - N/A   Overcast
7:53 AM 59.0 °F 51.1 °F 75% 30.09 in 10.0 mi South 4.6 mph - N/A   Overcast
8:53 AM 59.0 °F 54.0 °F 83% 30.10 in 10.0 mi SSE 6.9 mph - 0.00 in   Overcast
9:53 AM 61.0 °F 54.0 °F 78% 30.10 in 10.0 mi SSE 9.2 mph - N/A   Mostly Cloudy
10:53 AM 64.0 °F 54.0 °F 70% 30.09 in 10.0 mi SSE 8.1 mph - N/A   Mostly Cloudy
11:53 AM 63.0 °F 57.0 °F 81% 30.09 in 9.0 mi ESE 4.6 mph - 0.01 in Rain , Thunderstorm Light Thunderstorms and Rain
12:12 PM 62.1 °F 57.9 °F 86% 30.11 in 10.0 mi NNW 3.5 mph - 0.01 in Rain Light Rain
12:53 PM 62.1 °F 57.0 °F 84% 30.08 in 10.0 mi South 4.6 mph - 0.01 in   Overcast
1:33 PM 66.0 °F 57.0 °F 73% 30.09 in 10.0 mi Variable 3.5 mph - N/A Thunderstorm Thunderstorm
1:53 PM 64.9 °F 57.0 °F 75% 30.08 in 10.0 mi West 5.8 mph - 0.01 in Rain Light Rain
2:53 PM 64.9 °F 55.9 °F 73% 30.07 in 10.0 mi WSW 3.5 mph - 0.00 in   Overcast
3:53 PM 66.9 °F 55.9 °F 68% 30.07 in 10.0 mi SSW 5.8 mph - N/A   Overcast
4:53 PM 69.1 °F 51.1 °F 53% 30.05 in 10.0 mi SW 8.1 mph - N/A   Overcast
5:53 PM 68.0 °F 50.0 °F 52% 30.05 in 10.0 mi West 6.9 mph - N/A   Mostly Cloudy
6:53 PM 69.1 °F 46.9 °F 45% 30.04 in 10.0 mi WNW 8.1 mph - N/A   Mostly Cloudy
7:53 PM 68.0 °F 50.0 °F 52% 30.04 in 10.0 mi Variable 5.8 mph - 0.00 in   Mostly Cloudy
8:53 PM 66.0 °F 48.9 °F 54% 30.04 in 10.0 mi West 6.9 mph - 0.00 in   Mostly Cloudy
9:27 PM 64.9 °F 51.1 °F 61% 30.06 in 10.0 mi SW 5.8 mph - N/A   Mostly Cloudy
9:53 PM 64.0 °F 50.0 °F 60% 30.05 in 10.0 mi West 6.9 mph - N/A   Overcast
10:53 PM 61.0 °F 48.9 °F 64% 30.06 in 10.0 mi WSW 4.6 mph - N/A   Mostly Cloudy
11:53 PM 59.0 °F 51.1 °F 75% 30.06 in 10.0 mi WSW 4.6 mph - N/A   Overcast